GEFSSE_con_probscp_030.txt.gz
Probability
0 0 0 0 0 0 0 0 0 0 0 0 0 0 0 0 0 0 0 0 0 0 0 0 0 0 0 0 0 0 0 0 0 0 0 0 0 0 0 0 0 0 0
0 0 0 0 0 0 0 0 0 0 0 0 0 0 0 0 0 0 0 0 0 0 0 0 0 0 0 0 0 0 0 0 0 0 0 0 0 0 0 0 0 0 0
0 0 0 0 0 0 0 0 0 0 0 0 0 0 0 0 0 0 0 0 0 0 0 0 0 0 0 0 0 0 0 0 0 0 0 0 0 0 0 0 0 0 0
0 0 1 2 2 1 1 0 0 0 0 0 0 0 0 0 0 0 0 0 0 0 0 0 0 0 0 0 0 0 0 0 0 0 0 0 0 0 0 0 0 0 0
0 0 4 9 8 4 2 1 0 0 0 0 0 0 0 0 0 0 0 0 0 0 0 0 0 0 0 0 0 0 0 0 0 0 0 0 0 0 0 0 0 0 0
0 1 8 19 19 10 4 1 0 0 0 0 0 0 0 0 0 0 0 0 0 0 0 0 0 0 0 0 0 0 0 0 0 0 0 0 0 0 0 0 0 0 0
1 1 13 31 33 20 10 5 4 3 1 0 0 0 0 0 0 0 0 0 0 0 0 0 0 0 0 0 0 0 0 0 0 0 0 0 0 0 0 0 0 0 0
1 2 15 35 43 36 27 19 15 12 8 4 2 0 0 0 0 0 0 0 0 0 0 0 0 0 0 0 0 0 0 0 0 0 0 0 0 0 0 0 0 0 0
3 6 17 32 47 53 49 41 34 29 21 13 7 2 0 0 0 0 0 0 0 0 0 0 0 0 0 0 0 0 0 0 0 0 0 0 0 0 0 0 0 0 0
7 13 23 35 50 61 63 59 52 42 32 24 15 7 3 1 1 0 0 0 0 0 0 0 0 0 0 0 0 0 0 0 0 0 0 0 0 0 0 0 0 0 0
14 21 30 40 51 61 66 64 57 48 41 34 24 16 9 6 3 1 0 0 0 0 0 0 0 0 0 0 0 0 0 0 0 0 0 0 0 0 1 1 1 1 1
16 21 30 38 48 58 64 59 53 52 50 44 34 26 20 14 7 4 2 1 0 0 0 0 0 1 1 1 1 1 1 1 0 0 0 0 0 1 2 3 3 3 3
15 19 25 33 42 52 56 52 49 52 55 52 44 38 33 23 14 9 6 2 0 0 1 2 2 3 4 4 3 2 1 2 1 1 1 0 0 1 2 2 3 4 5
21 21 23 28 36 42 44 42 43 48 53 53 50 46 41 32 21 14 9 4 1 1 2 3 4 4 4 5 5 3 1 2 3 2 1 0 0 2 2 1 1 3 5
28 25 24 27 30 32 32 31 32 36 42 47 47 44 40 32 22 15 9 5 1 1 1 2 2 2 2 3 4 2 1 3 4 3 1 0 0 1 2 1 1 3 5
26 24 24 25 25 25 23 22 22 23 28 34 36 35 30 22 16 12 7 3 1 1 0 0 0 0 0 1 1 1 1 2 3 2 0 0 0 0 1 2 2 3 4
18 18 19 20 20 19 20 20 20 19 22 26 29 25 20 14 11 8 4 0 0 0 0 0 0 0 0 0 0 0 0 1 1 0 0 0 0 0 1 2 2 2 2
9 10 11 12 12 14 16 17 19 19 20 23 24 21 17 14 11 6 3 1 0 0 0 0 0 0 1 0 0 0 0 0 0 0 0 0 0 0 0 1 1 1 1
4 4 5 6 7 8 10 11 13 16 17 18 18 17 16 14 9 5 3 1 0 0 0 0 0 0 0 0 0 0 0 0 0 0 0 0 0 0 0 0 0 0 0
1 1 1 2 3 3 4 5 8 10 10 10 11 12 11 10 7 5 3 2 0 0 0 0 0 0 0 0 0 0 0 0 0 0 0 0 0 0 0 0 0 0 1
0 0 0 0 1 1 1 2 3 4 5 5 6 6 6 5 5 4 3 2 0 0 0 0 0 0 0 0 0 0 0 0 0 0 0 0 0 0 0 0 0 0 1
0 0 0 0 0 0 0 0 0 0 1 2 3 2 2 3 4 4 3 1 0 0 0 0 0 0 0 0 0 0 0 0 0 0 0 0 0 0 0 0 0 0 1
0 0 0 0 0 0 0 0 0 0 0 1 1 1 0 1 3 3 1 0 0 0 0 0 0 0 0 0 0 0 0 0 0 0 0 0 0 0 0 0 0 0 0
0 0 0 0 0 0 0 0 0 0 0 0 0 0 0 0 1 1 0 0 0 0 0 0 0 0 0 0 0 0 0 0 0 0 0 0 0 0 0 0 0 0 0
0 0 0 0 0 0 0 0 0 0 0 0 0 0 0 0 0 0 0 0 0 0 0 0 0 0 0 0 0 0 0 0 0 0 0 0 0 0 0 0 0 0 0
0 0 0 0 0 0 0 0 0 0 0 0 0 0 0 0 0 0 0 0 0 0 0 0 0 0 0 0 0 0 0 0 0 0 0 0 0 0 0 0 0 0 0

GEFSSE_con_probscp_036.txt.gz
Probability
0 0 0 0 0 0 0 0 1 1 1 1 1 1 0 0 0 0 0 0 0 0 0 0 0 0 0 0 0 0 0 0 0 0 0 0 0 0 0 0 0 0 0
0 0 0 0 0 0 0 0 0 1 2 2 2 2 1 0 0 0 0 0 0 0 0 0 0 0 0 0 0 0 0 0 0 0 0 0 0 0 0 0 0 0 0
0 0 0 0 0 0 0 0 0 0 1 2 3 3 2 1 0 0 0 0 0 0 0 0 0 0 0 0 0 0 0 0 0 0 0 0 0 0 0 0 0 0 0
0 0 0 0 0 0 0 0 0 0 0 1 2 2 2 1 0 0 0 0 0 0 0 0 0 0 0 0 0 0 0 0 0 0 0 0 0 0 0 0 0 0 0
0 0 0 0 0 0 0 0 0 0 0 0 1 1 1 0 0 0 0 0 0 0 0 0 0 0 0 0 0 0 0 0 0 0 0 0 0 0 0 0 0 0 0
0 0 0 0 0 0 0 0 0 0 0 0 0 0 0 0 0 0 0 0 0 0 0 0 0 0 0 0 0 0 0 0 0 0 0 0 0 0 0 0 0 0 0
0 0 0 0 0 0 0 0 0 0 0 0 0 0 0 0 0 0 0 0 0 0 0 0 0 0 0 0 0 0 0 0 0 0 0 0 0 0 0 0 0 0 0
0 0 1 0 0 0 0 1 2 2 1 1 1 1 1 1 1 1 1 1 0 0 0 0 0 0 0 0 0 0 0 0 0 0 0 0 0 0 0 0 0 0 0
0 0 0 1 2 4 6 9 11 10 8 7 6 5 5 4 5 6 7 5 3 2 1 0 0 0 0 0 0 0 0 0 0 0 0 0 0 0 0 0 0 0 0
1 1 0 3 8 12 17 24 28 27 24 21 19 17 14 10 9 10 11 12 9 6 4 1 0 0 0 0 0 0 0 0 0 0 0 2 3 2 0 0 0 0 0
7 7 6 11 17 21 28 41 46 46 44 37 33 33 30 22 16 15 22 28 23 14 8 5 3 1 0 1 2 1 1 0 0 0 5 11 10 3 0 0 0 0 0
20 19 21 25 28 30 38 51 57 60 60 54 48 50 52 47 37 35 47 55 39 21 14 12 10 5 4 8 10 8 4 1 0 0 12 26 19 4 0 0 1 1 1
30 31 33 36 37 40 50 56 58 62 66 66 65 70 76 74 69 67 75 77 60 40 32 32 26 18 14 16 17 14 8 4 2 2 18 34 25 6 1 1 2 2 2
35 35 36 37 39 47 57 57 54 57 62 68 75 82 87 89 88 89 92 90 80 67 60 56 48 36 29 23 18 14 10 8 5 7 23 36 26 8 2 3 4 3 4
42 37 34 34 37 46 54 53 49 51 56 61 70 76 82 88 92 94 96 95 88 81 75 68 57 47 41 32 20 12 10 9 8 12 25 32 24 10 4 5 5 4 4
43 37 30 28 32 37 42 43 41 44 48 51 56 63 70 79 85 88 90 89 86 81 77 69 60 53 46 36 22 14 10 9 10 12 19 24 19 10 5 6 8 7 6
39 36 29 23 24 27 29 29 29 32 34 37 44 50 55 64 71 75 78 79 79 81 82 75 65 56 45 31 22 18 16 13 12 12 14 18 16 8 6 10 13 12 12
33 32 28 21 19 20 21 19 18 18 19 23 30 36 40 45 51 58 67 69 70 73 74 68 60 51 38 25 20 21 20 17 13 11 12 15 15 10 8 12 14 15 14
22 22 22 20 19 19 18 15 12 10 10 13 18 24 27 29 31 40 52 57 58 59 56 49 43 38 28 18 14 14 15 14 11 8 7 8 10 9 8 10 11 10 9
11 13 14 16 17 16 14 13 12 11 9 9 10 13 15 14 16 25 35 42 45 45 41 33 27 25 21 14 8 6 7 7 6 5 3 3 4 4 4 5 6 4 3
6 6 7 9 11 11 10 10 12 11 10 7 6 6 5 5 9 17 26 33 37 37 32 25 20 17 14 11 8 6 4 2 3 3 2 1 1 1 0 1 2 2 2
2 3 3 3 4 5 5 6 6 7 7 5 4 3 2 3 7 14 22 29 33 34 29 22 16 11 7 5 5 4 3 1 1 1 1 1 0 0 0 0 1 1 1
0 1 1 0 1 1 1 1 2 3 4 4 3 2 2 3 5 9 14 21 27 30 27 20 13 8 4 2 1 1 1 0 0 0 0 0 0 0 0 0 0 0 0
0 0 0 0 0 0 0 0 0 1 1 2 2 1 1 1 2 3 5 9 14 18 19 16 12 9 5 3 1 0 0 0 0 0 0 0 0 0 0 0 0 0 0
0 0 0 0 0 1 0 0 0 0 0 1 1 0 0 0 0 0 1 2 3 6 9 12 14 11 6 4 2 1 0 0 0 0 0 0 0 0 0 0 0 0 0
0 0 0 0 0 1 0 0 0 0 0 0 0 0 0 0 0 0 0 0 0 2 5 11 15 11 6 4 2 1 0 0 0 0 0 0 0 0 0 0 0 0 0

GEFSSE_con_probscp_042.txt.gz
Probability
25 14 6 4 1 1 0 0 0 0 0 0 0 0 0 0 0 0 0 0 0 0 0 0 0 0 0 0 0 0 0 0 0 0 0 0 0 0 0 0 0 0 0
25 13 5 5 3 2 1 0 0 0 0 0 0 0 0 0 0 0 0 0 0 0 0 0 0 0 0 0 0 0 0 0 0 0 0 0 0 0 0 0 0 0 0
16 9 4 5 5 3 2 1 0 0 0 0 0 0 0 0 0 0 0 0 0 0 0 0 0 0 0 0 0 0 0 0 0 0 0 0 0 0 0 0 0 0 0
6 4 3 4 4 4 3 1 0 0 0 0 0 0 0 0 0 0 0 0 0 0 0 0 0 0 0 0 0 0 0 0 0 0 0 0 0 0 0 0 0 0 0
3 3 3 3 3 3 2 1 0 0 0 0 0 0 0 0 0 0 0 0 0 0 0 0 0 0 0 0 0 0 0 0 0 0 0 0 0 0 0 0 0 0 0
7 6 4 3 3 2 1 0 0 0 0 0 0 1 1 1 1 0 0 0 0 0 1 1 0 0 0 0 0 0 0 0 0 0 0 0 0 0 0 0 0 0 0
21 16 8 4 3 1 0 0 0 0 0 0 0 1 2 2 1 1 0 0 1 2 4 3 2 1 1 1 0 0 0 0 0 0 0 1 1 0 0 0 0 0 0
40 29 13 6 5 3 1 0 0 0 0 1 1 1 1 1 1 2 3 4 7 11 13 12 8 4 3 2 1 0 0 0 0 0 1 4 7 5 2 0 0 0 0
51 38 16 5 5 3 1 1 1 1 2 3 3 2 2 2 2 5 10 15 22 28 30 25 18 14 13 10 6 2 1 0 0 0 3 14 25 23 10 3 1 0 0
46 37 19 8 7 4 7 10 10 9 10 10 9 8 7 6 8 12 19 30 43 50 50 44 38 36 34 28 18 10 5 1 0 0 5 26 51 49 29 13 4 1 0
35 33 26 23 20 14 20 30 27 21 24 25 23 23 22 17 14 20 32 50 66 72 72 68 63 61 56 43 32 25 14 4 0 0 10 41 71 71 50 29 13 4 1
33 35 38 43 43 37 42 53 43 34 42 43 40 46 48 39 29 32 53 74 84 88 87 85 82 78 68 51 45 44 28 7 1 2 19 57 84 82 66 45 24 10 4
48 51 53 60 67 64 66 68 58 52 62 63 58 65 71 64 55 56 72 90 95 95 93 90 88 85 73 56 55 59 40 14 4 7 31 67 86 84 73 56 36 20 13
73 72 72 76 82 82 77 75 72 73 78 78 75 76 81 82 77 77 84 93 95 95 93 88 85 84 75 62 59 61 50 26 11 13 37 65 78 79 74 60 42 27 22
91 88 85 85 87 85 79 76 78 83 85 85 84 83 84 86 86 84 85 88 88 87 85 81 75 74 70 64 60 58 55 42 25 23 36 54 65 68 66 56 40 28 25
92 90 85 82 82 81 79 77 78 82 86 87 87 86 84 83 83 82 80 80 77 73 69 65 60 59 60 59 57 57 60 56 45 37 39 47 55 57 56 49 38 29 25
80 80 77 72 72 75 76 74 74 76 80 84 85 84 81 76 73 74 72 67 63 56 49 45 43 45 47 46 46 50 57 59 54 47 44 47 49 48 44 41 38 32 27
67 71 69 63 63 65 63 60 60 63 69 75 78 76 71 64 62 62 59 54 49 44 36 31 31 33 33 32 32 36 44 49 48 43 41 42 40 36 32 30 31 29 25
53 58 59 55 54 50 44 40 41 46 52 59 65 63 56 50 47 49 46 41 37 34 27 23 23 23 22 21 20 21 28 35 35 31 31 30 27 24 21 19 19 19 19
30 35 38 38 39 33 26 23 24 28 34 40 46 46 41 34 32 34 33 29 26 22 18 15 14 14 14 13 11 12 17 22 24 23 21 18 16 15 14 15 14 12 12
10 13 15 19 22 20 16 14 13 15 18 22 27 29 24 19 18 19 20 20 17 13 10 8 7 6 6 6 6 7 9 13 15 16 14 12 9 9 11 14 15 13 11
2 2 4 10 15 17 15 10 8 9 8 9 14 16 13 9 8 8 11 12 12 9 6 4 3 2 2 2 3 5 6 7 9 10 10 9 7 7 8 10 14 16 16
0 1 5 10 16 19 16 8 5 5 3 3 6 9 8 5 3 3 4 6 8 9 7 5 3 2 1 1 2 5 5 5 5 7 7 7 7 6 4 5 12 18 21
0 3 10 17 21 22 16 7 3 1 1 1 2 4 4 2 2 1 1 3 5 7 8 6 5 3 2 1 2 4 4 3 3 3 3 4 6 4 2 2 8 16 19
1 5 14 21 24 22 15 8 3 1 1 0 1 1 1 0 0 0 0 1 2 3 5 5 5 4 2 2 2 3 3 2 1 1 0 1 3 3 2 2 6 11 15
1 6 14 21 21 18 13 7 4 2 2 1 0 0 0 0 0 0 0 0 0 1 1 2 4 4 3 3 2 2 2 1 0 0 0 0 1 1 1 3 7 10 11

GEFSSE_con_probscp_048.txt.gz
Probability
0 1 2 2 0 0 0 0 0 0 0 0 0 0 0 0 0 0 0 0 0 0 0 0 0 0 0 0 0 0 0 0 0 0 0 0 0 0 0 0 0 0 0
0 1 3 2 1 0 0 0 0 0 0 0 0 0 0 0 0 0 0 0 0 0 0 0 0 0 0 0 0 0 0 0 0 0 0 0 0 0 0 0 0 0 0
0 0 2 2 1 0 0 0 0 0 0 0 0 0 0 0 0 0 0 0 0 0 0 0 0 0 0 0 0 0 0 0 0 0 0 0 0 0 0 0 0 0 0
0 0 1 2 2 1 0 0 0 1 1 0 0 0 0 0 0 0 0 0 0 0 0 0 0 0 0 0 0 0 0 0 0 0 0 0 0 0 0 0 0 0 0
1 0 1 3 4 3 3 3 3 3 3 1 0 0 0 0 0 0 0 0 0 0 0 0 0 0 0 0 0 0 0 0 0 0 0 0 0 0 0 0 0 0 0
1 0 1 3 5 6 8 8 7 6 4 1 0 0 0 0 0 0 0 0 0 0 0 0 0 0 0 0 0 0 0 0 0 0 0 0 0 0 0 0 0 0 0
1 0 1 4 6 8 10 10 8 5 2 0 0 0 0 0 0 0 0 0 0 0 0 0 0 0 0 0 0 0 0 0 0 0 0 0 0 0 0 0 0 0 0
0 0 1 4 6 7 8 8 7 4 2 1 0 0 0 0 0 0 0 0 0 0 1 2 2 2 2 1 0 0 0 0 0 0 0 0 0 0 0 0 0 0 0
0 0 1 2 3 3 5 7 7 6 4 3 1 0 0 1 1 1 1 2 2 2 4 6 8 9 9 8 4 2 0 0 0 0 0 0 0 0 0 0 0 0 0
0 0 0 0 0 1 3 5 6 6 4 3 1 1 2 3 3 3 3 4 5 6 9 14 19 22 23 20 14 7 3 1 1 0 0 0 0 1 1 0 0 0 0
6 5 3 3 2 1 1 2 3 2 2 2 3 4 6 7 7 6 6 6 8 11 16 24 33 39 40 36 29 22 15 9 4 1 0 0 3 8 11 8 4 1 1
27 21 16 13 11 9 7 6 5 3 4 5 6 7 9 11 11 10 9 9 11 16 23 32 43 51 53 52 48 42 34 21 9 3 1 2 9 22 31 27 16 8 6
55 49 41 36 34 29 25 21 17 14 14 15 14 13 13 16 15 13 12 12 16 22 31 39 47 52 56 59 58 53 46 32 16 5 1 6 20 37 49 48 35 23 17
72 68 62 59 55 50 44 38 33 30 29 28 25 24 26 27 23 16 12 11 15 24 34 40 44 46 49 52 51 47 43 36 22 7 2 11 29 46 57 60 50 35 27
68 65 61 58 56 53 49 44 39 38 36 32 32 34 38 37 28 17 10 8 11 21 29 32 33 33 37 38 37 34 32 30 22 9 3 13 31 46 58 64 54 38 28
50 48 44 41 40 38 36 34 31 30 30 29 31 35 37 34 26 17 11 8 8 14 20 22 21 21 23 25 24 24 22 21 17 10 6 11 25 38 50 58 52 38 31
30 28 25 22 20 20 20 19 18 18 19 21 25 27 26 22 19 15 13 11 7 7 11 13 14 14 13 13 14 15 14 12 12 10 8 10 16 25 35 43 44 39 35
12 10 8 7 7 7 9 9 9 9 9 11 15 16 13 12 12 11 10 8 6 4 6 8 9 8 6 6 6 7 7 6 7 8 8 9 11 14 20 27 32 32 31
2 1 1 1 2 2 3 3 3 3 3 4 6 6 5 5 6 5 4 4 3 3 3 4 5 6 5 3 2 3 4 4 4 5 6 8 9 9 11 16 19 21 21
0 0 0 0 0 0 0 0 0 0 1 1 2 2 2 2 2 1 1 1 1 1 1 2 3 5 4 2 2 2 3 3 3 3 4 7 9 8 9 11 12 12 12
0 0 0 0 0 0 0 0 0 0 0 0 1 1 1 0 0 0 0 0 0 0 0 0 1 2 1 1 1 1 1 2 2 3 3 5 7 8 7 8 8 8 7
0 0 0 0 0 0 0 0 0 0 0 0 0 0 0 0 0 0 0 0 0 0 0 0 0 0 0 0 0 0 0 0 1 2 3 3 5 6 6 6 6 6 5
0 0 0 1 0 0 0 0 0 0 0 0 0 0 0 0 0 0 0 0 0 0 0 0 0 0 0 0 0 0 0 0 0 1 1 2 3 4 4 3 3 4 4
0 0 0 0 0 0 0 0 0 0 0 0 0 0 0 0 0 0 0 0 0 0 0 0 0 0 0 0 0 0 0 0 0 0 0 1 1 1 1 1 1 3 4
0 0 0 0 0 0 0 0 0 0 0 0 0 0 0 0 0 0 0 0 0 0 0 0 0 0 0 0 0 0 0 0 0 0 0 0 0 0 0 0 1 3 4
0 0 0 0 0 0 0 0 0 0 0 0 0 0 0 0 0 0 0 0 0 0 0 0 0 0 0 0 0 0 0 0 0 0 0 0 0 0 1 1 1 2 4

GEFSSE_con_probscp_054.txt.gz
Probability
0 0 0 0 0 0 1 2 4 4 3 1 0 0 0 0 0 0 0 0 0 0 0 0 0 0 0 0 0 0 0 0 0 0 0 0 0 0 0 0 0 0 0
0 0 0 0 0 0 1 3 4 3 2 1 0 0 0 0 0 0 0 0 0 0 0 0 0 0 0 0 0 0 0 0 0 0 0 0 0 0 0 0 0 0 0
0 0 0 0 0 1 2 4 4 2 1 1 0 0 0 0 0 0 0 0 0 0 0 0 0 0 0 0 0 0 0 0 0 0 0 0 0 0 0 0 0 0 0
0 0 0 0 0 1 2 4 4 2 0 0 0 0 0 0 0 0 0 0 0 0 0 0 0 0 0 0 0 0 0 0 0 0 0 0 0 0 0 0 0 0 0
0 0 0 0 0 0 2 5 5 2 1 0 0 0 0 0 0 0 0 0 0 0 0 0 0 0 0 0 0 0 0 0 0 0 0 0 0 0 0 0 0 0 0
0 0 0 0 1 1 3 6 6 4 2 0 0 0 0 0 0 0 0 0 0 0 0 0 0 0 0 0 0 0 0 0 0 0 0 0 0 0 0 0 0 0 0
0 0 0 1 3 5 7 8 7 4 2 0 0 0 0 0 0 0 0 0 0 0 0 0 0 0 0 0 0 0 0 0 0 0 0 0 0 0 0 0 0 0 0
0 0 0 2 5 7 8 9 8 5 3 1 1 0 0 0 0 0 0 0 0 0 0 0 0 0 0 0 0 0 0 0 0 0 0 0 0 0 0 0 0 0 0
0 0 0 2 4 6 6 8 9 8 5 3 2 1 0 0 0 0 0 0 0 0 0 0 0 0 0 1 1 1 1 1 1 0 0 0 0 0 0 0 0 0 0
1 1 0 1 3 5 5 6 9 10 8 5 3 2 1 0 0 0 0 0 0 0 0 0 0 0 2 3 3 3 4 4 2 1 0 0 0 0 0 0 0 0 0
5 3 1 1 4 8 8 8 9 10 10 9 6 4 3 2 1 2 2 2 2 1 1 1 1 3 5 7 7 7 10 10 5 2 0 0 0 0 0 0 0 0 0
8 5 3 4 7 10 11 10 10 11 12 10 7 7 7 6 5 6 7 7 5 4 3 3 6 10 12 12 10 12 15 15 11 6 2 1 0 0 0 0 0 1 1
13 9 6 7 8 10 11 11 12 12 12 9 7 9 12 10 10 11 11 9 7 7 6 5 9 15 18 16 13 13 14 16 16 12 6 2 1 0 0 0 0 1 1
20 15 10 9 9 11 11 12 13 12 10 9 8 10 14 13 13 14 13 10 8 8 8 6 8 12 16 17 15 12 10 12 14 12 8 4 3 2 1 0 0 1 1
22 17 10 9 10 11 11 10 10 9 8 7 7 9 12 14 13 15 14 10 8 8 8 6 6 7 11 15 16 12 9 8 8 8 7 6 6 6 6 5 3 3 2
13 10 7 7 7 6 6 5 4 4 3 3 4 6 8 9 10 11 10 8 6 6 6 5 5 6 8 11 12 11 10 8 6 6 6 7 8 10 12 14 12 10 8
4 3 2 2 2 1 1 1 1 1 1 1 1 2 3 3 4 5 5 4 3 3 3 3 4 6 8 8 8 8 8 6 4 4 5 6 8 10 15 22 24 22 20
1 1 1 0 0 0 0 0 0 0 0 0 0 0 1 1 2 1 1 2 2 2 2 2 4 6 6 6 5 5 5 4 2 1 2 3 5 6 11 22 29 29 28
0 0 0 0 0 0 0 0 0 0 0 0 0 0 1 2 2 1 0 1 2 2 2 2 3 4 3 2 2 3 4 3 1 0 0 1 2 3 7 16 25 29 29
0 0 0 0 0 0 0 0 0 0 0 0 0 0 1 1 1 0 0 1 1 1 1 1 2 2 1 0 1 2 2 1 0 0 0 1 2 2 5 11 19 25 29
0 0 0 0 0 0 0 0 0 0 0 0 0 0 0 0 0 0 0 0 0 0 0 0 1 1 1 0 0 1 1 0 0 0 1 1 1 1 3 7 13 20 25
0 0 0 0 0 0 0 0 0 0 0 0 0 0 0 0 0 0 0 0 0 0 0 0 0 0 0 0 0 0 0 0 0 0 1 0 0 0 1 3 7 12 15
0 0 0 0 0 0 0 0 0 0 0 0 0 0 0 0 0 0 0 0 0 0 0 0 0 0 0 0 0 0 0 0 0 0 0 0 0 0 0 2 4 6 8
0 0 0 0 0 0 0 0 0 0 0 0 0 0 0 0 0 0 0 0 0 0 0 0 0 0 0 0 0 0 0 0 0 0 0 0 0 0 0 1 3 5 6
0 0 0 0 0 0 0 0 0 0 0 0 0 0 0 0 0 0 0 0 0 0 0 0 0 0 0 0 0 0 0 0 0 0 0 0 0 0 0 1 4 6 8
0 0 0 0 0 0 0 0 0 0 0 0 0 0 0 0 0 0 0 0 0 0 0 0 0 0 0 0 0 0 0 0 0 0 0 0 0 0 0 1 4 7 9

GEFSSE_con_probscp_060.txt.gz
Probability
0 0 0 0 0 0 0 0 0 0 0 0 0 0 0 0 0 0 0 0 0 0 0 0 0 0 0 0 0 0 0 0 0 0 0 0 0 0 0 0 0 0 0
0 0 0 0 0 0 0 0 0 0 0 0 0 0 0 0 0 0 0 0 0 0 0 0 0 0 0 0 0 0 0 0 0 0 0 0 0 0 0 0 0 0 0
0 0 0 0 0 0 0 0 0 0 0 0 0 0 0 0 0 0 0 0 0 0 0 0 0 0 0 0 0 0 0 0 0 0 0 0 0 0 0 0 0 0 0
0 0 0 0 0 0 0 0 0 0 0 0 0 0 0 0 0 0 0 0 0 0 0 0 0 0 0 0 0 0 0 0 0 0 0 0 0 0 0 0 0 0 0
0 0 0 0 0 0 0 0 0 0 0 0 0 0 0 0 0 0 0 0 0 0 0 0 0 0 0 0 0 0 0 0 0 0 0 0 0 0 0 0 0 0 0
0 0 0 0 0 0 0 0 0 0 0 0 0 0 0 0 0 0 0 0 0 0 0 0 0 0 0 0 0 0 0 0 0 0 0 0 0 0 0 0 0 0 0
0 0 0 0 0 0 0 0 0 0 0 1 1 1 0 0 0 0 0 0 0 0 0 0 0 0 0 0 0 0 0 0 0 0 0 0 0 0 0 0 0 0 0
0 0 0 0 0 0 0 0 1 1 2 3 3 2 1 0 0 0 0 0 0 0 0 0 0 0 0 0 0 0 0 0 0 0 0 0 0 0 0 0 0 0 0
0 0 1 1 0 0 0 2 4 5 6 6 5 4 2 1 1 1 1 0 0 0 0 0 0 0 0 0 0 0 0 0 0 0 0 0 0 0 0 0 0 0 0
0 0 1 1 1 1 2 4 6 7 6 6 4 4 4 3 2 2 2 2 2 1 1 1 0 0 0 0 0 0 0 0 0 0 1 1 1 0 0 0 0 0 0
0 0 1 1 2 2 2 5 7 7 6 6 6 7 7 6 5 6 6 6 5 4 3 1 1 1 1 1 1 1 0 0 0 0 5 9 7 2 0 0 0 0 0
1 1 2 3 3 4 4 8 11 12 13 14 15 15 13 12 10 10 10 9 8 7 4 2 2 3 4 5 7 6 3 2 1 1 10 21 16 6 2 0 0 0 0
4 4 5 6 7 9 12 17 19 20 22 23 25 24 21 20 17 15 16 16 14 13 11 10 8 8 11 14 15 12 9 7 6 6 16 28 23 10 4 1 1 0 1
9 9 9 11 13 18 24 25 22 20 20 23 26 25 23 22 20 18 20 21 22 22 21 20 17 15 18 22 19 16 14 13 13 14 22 29 24 14 7 4 2 2 2
13 13 13 14 16 22 27 25 18 14 13 15 18 17 15 15 15 16 18 20 22 24 24 23 20 19 20 21 18 16 17 17 18 22 26 29 25 18 12 8 5 4 6
14 14 13 14 15 17 19 17 12 9 7 6 7 6 7 8 9 11 12 13 16 19 20 19 18 16 17 17 16 16 19 20 22 25 27 29 27 21 18 17 14 14 17
11 10 9 10 11 9 8 7 6 5 4 3 2 2 3 5 7 6 6 6 8 11 13 15 15 13 13 14 14 15 18 19 21 23 25 30 30 24 23 28 31 32 34
8 7 5 4 5 4 2 2 1 1 2 1 1 1 1 3 4 3 2 2 2 4 8 11 12 11 12 12 14 15 15 16 16 16 18 25 30 29 31 37 42 42 42
5 4 2 1 1 1 1 0 0 0 1 1 0 0 0 1 1 1 0 0 0 1 5 8 9 10 10 10 11 12 12 13 13 11 11 16 23 29 34 40 44 45 44
3 2 1 0 0 0 0 0 0 0 0 0 0 0 0 0 0 0 0 0 0 0 2 4 6 6 6 6 6 6 7 9 11 11 9 10 15 20 26 34 43 49 50
2 1 0 0 0 0 0 0 0 0 0 0 0 0 0 0 0 0 0 0 0 0 0 1 3 3 3 3 3 3 3 5 8 10 10 11 12 14 16 24 36 47 53
1 0 0 1 1 1 1 1 1 2 1 1 0 0 0 0 0 0 0 0 0 0 0 0 1 1 1 1 2 3 3 3 4 5 6 8 12 13 13 17 25 35 42
0 0 2 4 5 5 4 3 3 4 3 2 1 0 0 0 0 0 0 0 0 0 0 0 0 0 0 0 1 1 2 1 1 1 1 3 7 11 12 13 16 21 26
0 1 4 6 8 9 9 7 5 5 4 3 2 1 0 0 0 0 0 0 0 0 0 0 0 0 0 0 0 0 0 0 0 0 0 0 2 4 7 8 10 14 15
0 1 4 7 11 13 12 10 7 4 3 3 2 1 0 0 0 0 0 0 0 0 0 0 0 0 0 0 0 0 0 0 0 0 0 0 0 0 1 2 5 9 11
0 1 3 8 14 14 12 11 8 5 3 2 1 0 0 0 0 0 0 0 0 0 0 0 0 0 0 0 0 0 0 0 0 0 0 0 0 0 0 0 2 6 8

GEFSSE_con_probscp_066.txt.gz
Probability
0 0 0 0 0 0 0 0 0 0 0 0 0 0 0 0 0 0 0 0 0 0 0 0 0 0 0 0 0 0 0 0 0 0 0 0 0 0 0 0 0 0 0
0 0 0 0 0 0 0 0 0 0 0 0 0 0 0 0 0 0 0 0 0 0 0 0 0 0 0 0 0 0 0 0 0 0 0 0 0 0 0 0 0 0 0
0 0 0 0 0 0 0 0 0 0 0 0 0 0 0 0 0 0 0 0 0 0 0 0 0 0 0 0 0 0 0 0 0 0 0 0 0 0 0 0 0 0 0
1 0 0 0 0 0 0 0 0 0 0 0 0 0 0 0 0 0 0 0 0 0 0 0 0 0 0 0 0 0 0 0 0 0 0 0 0 0 0 0 0 0 0
3 1 0 0 0 0 0 0 0 0 0 0 0 0 0 0 0 0 0 0 0 0 0 0 0 0 0 0 0 0 0 0 0 0 0 0 0 0 0 0 0 0 0
6 3 0 0 0 0 0 0 0 0 0 0 0 0 0 0 0 0 0 0 0 0 0 0 0 0 0 0 0 0 0 0 0 0 0 0 0 0 0 0 0 0 0
10 6 3 2 1 0 0 0 0 0 0 0 0 1 1 1 1 1 0 0 0 0 0 0 0 0 0 0 0 0 0 0 0 0 0 0 0 0 0 0 0 0 0
14 9 5 3 2 1 0 1 1 1 1 1 1 1 2 2 2 1 1 0 0 0 0 0 0 0 0 0 0 0 0 0 0 0 0 1 1 0 0 0 0 0 0
16 11 5 3 2 1 1 3 5 5 4 4 3 2 1 1 1 1 1 1 1 0 1 1 0 0 0 0 0 0 0 0 0 0 1 4 5 3 1 0 0 0 0
16 10 5 3 1 1 2 4 7 8 7 6 4 2 0 0 1 3 4 5 4 2 3 3 2 1 0 0 0 0 0 0 0 0 3 12 17 11 5 1 0 0 0
18 12 8 7 5 4 5 6 8 11 10 7 5 3 2 3 6 9 12 13 10 6 5 6 6 4 2 1 1 1 1 0 0 1 9 26 33 24 13 5 1 0 0
19 16 16 17 15 15 16 15 13 15 15 13 12 9 7 8 11 16 20 21 16 9 6 8 9 8 5 3 5 6 3 0 0 2 17 39 46 36 24 14 6 2 0
21 22 24 29 31 33 32 26 20 21 20 18 17 15 12 12 14 20 25 24 19 12 9 13 17 15 11 10 11 10 5 2 1 5 23 46 51 42 33 24 15 8 4
32 32 34 39 43 47 43 31 24 23 20 16 15 14 12 10 13 19 25 24 20 16 17 22 25 22 19 18 16 11 9 7 5 7 24 43 49 47 42 35 27 20 15
53 48 44 42 41 41 39 31 21 17 14 11 9 9 7 6 9 14 18 19 18 19 21 23 24 22 21 20 16 12 12 13 10 9 21 37 45 48 49 43 39 34 29
67 58 44 33 28 26 25 21 14 9 8 6 6 6 5 4 6 9 12 13 13 14 17 17 15 14 13 14 13 12 12 14 13 12 20 33 41 46 49 48 48 47 42
63 52 34 22 18 17 14 9 5 4 4 4 4 5 4 4 6 7 8 9 8 8 9 10 9 7 5 6 8 8 10 13 13 13 19 27 32 38 43 47 53 56 53
50 40 25 16 14 12 9 4 2 1 1 2 4 4 3 3 4 5 4 4 4 4 4 5 6 4 3 3 4 5 8 13 13 11 13 18 24 32 38 42 49 55 56
36 29 20 14 10 7 6 5 3 2 2 2 3 4 3 1 1 1 1 2 2 2 2 2 3 3 2 3 3 3 7 10 10 8 7 11 20 29 33 36 40 43 44
23 19 14 10 7 5 5 5 5 3 3 2 2 3 2 0 0 0 0 0 1 1 1 1 1 1 2 2 1 1 3 5 6 5 4 8 16 25 30 35 37 35 33
14 12 10 8 6 5 6 6 5 4 3 1 2 2 2 0 0 0 0 0 0 1 1 1 0 0 1 1 0 0 0 1 2 3 4 6 10 17 26 34 39 38 36
7 8 10 11 9 7 8 7 6 4 3 1 3 4 2 1 0 0 0 0 0 0 0 0 0 0 0 0 0 0 0 0 1 1 3 5 6 11 18 25 32 36 37
4 6 11 15 14 11 9 7 5 4 3 2 5 6 3 1 0 0 0 0 0 0 0 0 0 0 0 0 0 1 0 0 0 0 1 2 3 5 10 14 18 23 26
3 7 15 22 21 15 11 7 5 4 3 4 7 7 4 1 0 0 0 0 0 0 0 0 0 0 0 0 0 0 0 0 0 0 1 1 1 3 5 6 8 12 14
3 7 18 29 29 22 14 9 7 5 4 5 7 7 4 1 0 0 0 0 0 0 0 0 0 0 0 0 0 0 0 0 0 0 1 1 2 3 3 4 4 6 7
4 8 19 34 37 29 18 12 9 6 5 5 6 5 3 1 0 0 0 0 0 0 0 0 0 0 0 0 0 0 0 0 0 0 0 0 1 3 5 4 3 3 4

GEFSSE_con_probscp_072.txt.gz
Probability
0 0 0 0 0 0 0 0 0 0 0 0 0 0 0 0 0 0 0 0 0 0 0 0 0 0 0 0 0 0 0 0 0 0 0 0 0 0 0 0 0 0 0
0 0 0 0 0 0 0 0 0 0 0 0 0 0 0 0 0 0 0 0 0 0 0 0 0 0 0 0 0 0 0 0 0 0 0 0 0 0 0 0 0 0 0
0 0 0 1 1 1 1 0 0 0 0 0 0 0 0 0 0 0 0 0 0 0 0 0 0 0 0 0 0 0 0 0 0 0 0 0 0 0 0 0 0 0 0
0 0 1 2 3 2 2 1 0 0 0 0 0 0 0 0 0 0 0 0 0 0 0 0 0 0 0 0 0 0 0 0 0 0 0 0 0 0 0 0 0 0 0
0 0 1 3 3 2 2 1 0 0 0 0 0 0 0 0 0 0 0 0 0 0 0 0 0 0 0 0 0 0 0 0 0 0 0 0 0 0 0 0 0 0 0
0 0 1 2 2 1 1 0 0 0 0 0 0 0 0 0 0 0 0 0 0 0 0 0 0 0 0 0 0 0 0 0 0 0 0 0 0 0 0 0 0 0 0
0 0 1 3 3 3 2 0 0 0 0 0 0 0 0 0 0 0 0 0 0 0 0 0 0 0 0 0 0 0 0 0 0 0 0 0 0 0 0 0 0 0 0
0 0 1 3 4 4 3 1 0 0 0 0 0 0 0 0 0 0 0 0 0 0 0 0 0 0 0 0 0 0 0 0 0 0 0 0 0 0 0 0 0 0 0
0 0 0 1 2 3 3 2 1 0 0 0 0 0 0 0 0 1 1 1 0 0 0 0 0 0 0 0 0 0 0 0 0 0 0 0 1 2 1 0 0 0 0
0 0 0 1 2 3 3 2 1 1 2 2 1 1 0 0 1 2 2 2 1 1 0 0 1 1 0 0 0 0 0 0 0 0 0 0 2 4 3 1 1 0 0
0 0 0 1 2 3 3 2 1 1 2 2 2 1 0 0 1 2 3 4 4 3 1 0 1 1 0 0 0 0 1 1 0 0 0 0 2 5 6 4 2 1 1
1 0 0 1 1 1 2 2 1 1 1 1 1 0 0 0 0 1 2 4 5 4 2 0 0 0 0 1 1 1 2 3 2 1 1 2 3 6 8 8 6 4 2
5 3 2 1 0 1 1 1 1 1 0 0 0 0 0 0 0 1 1 2 3 2 1 0 0 0 1 1 2 2 2 2 2 2 3 5 6 7 8 9 8 5 2
14 10 6 3 2 2 1 1 1 1 1 0 0 0 0 0 0 1 1 1 1 0 0 0 0 1 1 1 2 2 2 1 1 1 3 7 8 7 7 6 7 6 4
21 15 9 6 4 3 3 2 2 2 1 0 0 0 0 0 0 1 2 1 1 0 0 0 0 0 1 1 2 2 2 2 1 0 2 5 9 9 8 6 4 4 5
23 17 11 7 5 4 3 2 1 1 1 0 0 0 0 0 0 1 1 1 0 0 0 0 0 0 0 1 1 2 3 2 1 0 0 2 6 10 10 9 6 4 5
18 15 10 6 4 3 1 1 0 0 0 0 0 0 0 0 0 0 0 0 0 0 0 0 0 0 0 0 0 1 2 2 1 0 0 1 3 5 8 11 9 7 6
11 9 7 4 2 1 0 0 0 0 0 0 0 0 0 0 0 0 0 0 0 0 0 0 0 0 0 0 0 0 1 1 0 0 1 2 2 1 4 8 9 7 7
5 5 5 3 1 0 0 0 0 0 0 0 0 0 0 0 0 0 0 0 0 0 0 0 0 0 0 0 0 0 0 0 0 0 1 1 1 0 1 2 4 5 6
3 4 4 3 1 0 0 0 0 0 0 0 0 0 0 0 0 0 0 0 0 0 0 0 0 0 0 0 0 0 0 0 0 0 0 0 0 0 0 0 2 4 4
3 4 4 3 1 0 0 0 0 0 0 0 0 0 0 0 0 0 0 0 0 0 0 0 0 0 0 0 0 0 0 0 0 0 0 0 0 0 0 0 3 5 4
2 3 3 2 1 0 0 0 0 0 0 0 0 0 0 0 0 0 0 0 0 0 0 0 0 0 0 0 0 0 0 0 0 0 0 0 0 0 0 0 2 5 4
1 2 1 1 0 0 0 0 0 0 0 0 0 0 0 0 0 0 0 0 0 0 0 0 0 0 0 0 0 0 0 0 0 0 0 0 0 0 0 0 1 3 3
0 0 0 0 0 0 0 0 0 0 0 0 0 0 0 0 0 0 0 0 0 0 0 0 0 0 0 0 0 0 0 0 0 0 0 0 0 0 0 0 0 1 1
0 0 0 0 0 0 0 0 0 0 0 0 0 0 0 0 0 0 0 0 0 0 0 0 0 0 0 0 0 0 0 0 0 0 0 0 0 0 0 0 0 0 0
0 0 0 0 0 0 0 0 0 0 0 0 0 0 0 0 0 0 0 0 0 0 0 0 0 0 0 0 0 0 0 0 0 0 0 0 0 0 0 0 0 0 0

GEFSSE_con_probscp_078.txt.gz
Probability
0 0 0 0 0 1 1 1 0 0 0 0 0 0 0 0 0 0 0 0 0 0 0 0 0 0 0 0 0 0 0 0 0 0 0 0 0 0 0 0 0 0 0
0 0 0 0 0 0 0 0 0 0 0 0 0 0 0 0 0 0 0 0 0 0 0 0 0 0 0 0 0 0 0 0 0 0 0 0 0 0 0 0 0 0 0
1 1 1 1 0 0 0 0 0 0 0 0 0 0 0 0 0 0 0 0 0 0 0 0 0 0 0 0 0 0 0 0 0 0 0 0 0 0 0 0 0 0 0
2 2 1 0 0 0 0 0 0 0 0 0 0 0 0 0 0 0 0 0 0 0 0 0 0 0 0 0 0 0 0 0 0 0 0 0 0 0 0 0 0 0 0
3 3 1 1 0 0 0 0 0 0 0 0 0 0 0 0 0 0 0 0 0 0 0 0 0 0 0 0 0 0 0 0 0 0 0 0 0 0 0 0 0 0 0
4 3 3 2 1 1 0 0 0 0 0 0 0 0 0 0 0 0 0 0 0 0 0 0 0 0 0 0 0 0 0 0 0 0 0 0 0 0 0 0 0 0 0
5 5 4 3 3 3 1 1 0 0 0 0 0 0 0 0 0 0 0 0 0 0 0 0 0 0 0 0 0 0 0 0 0 0 0 0 0 0 0 0 0 0 0
7 6 5 4 4 4 3 2 1 0 0 0 0 0 0 1 1 1 1 1 0 0 0 0 0 0 0 0 0 0 0 0 0 0 0 0 0 0 0 0 0 0 0
6 5 3 3 3 4 5 4 4 3 2 1 0 0 0 1 2 2 2 1 0 0 0 0 0 0 0 0 0 0 0 0 0 0 0 0 0 0 0 0 0 0 0
4 2 1 2 3 4 6 7 7 6 4 2 0 0 0 1 1 1 1 1 0 0 0 0 0 0 0 0 0 0 0 0 0 0 0 1 1 1 0 0 0 0 0
1 1 1 2 3 4 5 6 5 4 3 1 0 0 0 0 0 0 0 1 1 0 0 1 1 0 0 0 0 1 2 1 0 0 1 2 2 2 1 0 0 0 0
1 1 1 2 3 3 3 2 1 1 0 0 0 0 0 0 0 0 0 1 1 0 0 0 1 1 0 0 0 2 3 2 1 1 1 2 2 3 2 1 0 0 0
2 1 1 2 2 1 1 0 0 0 0 0 0 0 0 0 0 0 0 1 1 0 0 0 0 0 0 0 1 1 2 2 2 1 1 1 2 3 3 1 1 0 0
3 2 1 1 1 0 0 0 0 0 0 0 0 0 0 0 0 0 0 0 0 0 0 0 0 0 0 0 1 1 1 2 1 1 0 0 1 3 4 3 2 1 0
3 1 0 0 0 0 0 0 0 0 0 0 0 0 0 0 0 0 0 0 0 0 0 0 0 0 0 0 0 1 2 2 1 0 0 0 1 3 4 4 3 2 2
2 1 0 0 0 0 0 0 0 0 0 0 0 0 0 0 0 0 0 0 0 0 0 0 0 0 0 0 0 1 2 2 1 0 0 0 0 2 3 3 2 2 3
1 0 0 0 0 0 0 0 0 0 0 0 0 0 0 0 0 0 0 0 0 0 0 0 0 0 0 0 0 0 1 1 0 0 0 0 0 0 1 2 2 2 2
0 0 0 0 0 0 0 0 0 0 0 0 0 0 0 0 0 0 0 0 0 0 0 0 0 0 0 0 0 0 0 0 0 0 0 0 0 0 0 1 2 1 0
0 0 0 0 0 0 0 0 0 0 0 0 0 0 0 0 0 0 0 0 0 0 0 0 0 0 0 0 0 0 0 0 0 0 0 0 0 0 0 0 0 0 0
1 1 0 0 0 0 0 0 0 0 0 0 0 0 0 0 0 0 0 0 0 0 0 0 0 0 0 0 0 0 0 0 0 0 0 0 0 0 0 0 0 1 1
2 2 1 0 0 0 0 0 0 0 0 0 0 0 0 0 0 0 0 0 0 0 0 0 0 0 0 0 0 0 0 0 0 0 0 0 0 0 0 0 0 2 3
1 1 0 0 0 0 0 0 0 0 0 0 0 0 0 0 0 0 0 0 0 0 0 0 0 0 0 0 0 0 0 0 0 0 0 0 0 0 0 0 0 1 1
0 0 0 0 0 0 0 0 0 0 0 0 0 0 0 0 0 0 0 0 0 0 0 0 0 0 0 0 0 0 0 0 0 0 0 0 0 0 0 0 0 0 0
0 0 0 0 0 0 0 0 0 0 0 0 0 0 0 0 0 0 0 0 0 0 0 0 0 0 0 0 0 0 0 0 0 0 0 0 0 0 0 0 0 0 0
0 0 0 0 0 0 0 0 0 0 0 0 0 0 0 0 0 0 0 0 0 0 0 0 0 0 0 0 0 0 0 0 0 0 0 0 0 0 0 0 0 0 0
0 0 0 0 0 0 0 0 0 0 0 0 0 0 0 0 0 0 0 0 0 0 0 0 0 0 0 0 0 0 0 0 0 0 0 0 0 0 0 0 0 0 0